Location: Charlottetown
(46.2330°N, 63.1330°W)
Time: 19:20:16
(UTC-03:00)

Daily predictions for brighter satellites

Satellite Brightness Start Highest point End
(mag) Time Altitude Azimuth Time Altitude Azimuth Time Altitude Azimuth
CZ-4C R/B 2.4 19:17:23 10° SW 19:22:47 85° NW 19:28:56 10° NE
Cosmos 1812 Rocket 3.8 19:19:12 10° SSW 19:23:31 75° W 19:27:54 10° N
BREEZE-M DEB (TANK) 3.9 19:23:11 10° WSW 19:24:46 18° SSW 19:26:57 10° SSE
ATLAS 3B R/B 3.7 19:17:31 10° WSW 19:24:59 56° NW 19:32:12 10° NE
Cosmos 1766 Rocket 4.3 19:21:27 10° N 19:25:26 32° ENE 19:29:21 10° SE
Aureole 2 Rocket 3.3 19:22:28 10° S 19:26:40 46° ESE 19:30:46 10° NNE
Cosmos 1484 Rocket 3.0 19:23:25 10° S 19:27:16 79° WSW 19:31:12 10° NNW
SAR-Lupe-1 4.0 19:25:47 10° SSE 19:29:18 64° ENE 19:32:51 10° N
Cosmos 1464 Rocket 4.3 19:23:28 10° SSE 19:29:19 45° E 19:35:09 10° NNE
Cosmos 2237 Rocket 2.5 19:23:42 10° SSW 19:29:22 75° WNW 19:35:05 10° NNE
ALOS 3.4 19:28:21 10° ESE 19:32:05 24° ENE 19:35:50 10° N
ATLAS 5 CENTAUR R/B 2.7 19:29:11 10° S 19:33:19 29° ESE 19:37:43 10° ENE
Helios 1B rocket 3.4 19:31:06 10° NE 19:34:35 26° E 19:38:03 10° SSE
CZ-2C R/B 4.5 19:31:33 10° SSW 19:35:59 33° W 19:40:19 10° NNW
Cosmos 1076 Rocket 3.7 19:32:58 10° N 19:37:12 51° ENE 19:41:25 10° SSE
Meteor 1-29 4.3 19:34:57 10° NE 19:37:40 20° E 19:40:19 10° SE
Cosmos 1607 4.4 19:34:57 10° SW 19:41:05 64° NW 19:47:13 10° NNE
BREEZE-M DEB (TANK) 4.5 19:20:43 10° WSW 19:41:45 87° S 19:46:50 11° E
Cosmos 2233 Rocket 4.4 19:37:17 10° SSW 19:43:34 71° W 19:49:56 10° N
NOSS 3-2 (A) 3.6 19:37:51 10° SSW 19:43:49 59° ESE 19:50:21 10° NE
Cosmos 1452 Rocket 3.6 19:39:16 10° NNW 19:44:29 60° ENE 19:49:40 10° SE
TELKOM 3 3.5 19:41:28 10° WNW 19:44:37 57° NNE 19:46:26 15° E
Cosmos-2242 3.8 19:42:12 10° SSE 19:46:01 30° E 19:49:53 10° NNE
Cosmos 1766 3.2 19:43:21 10° S 19:47:17 72° E 19:51:18 10° NNE
SL-16 R/B 2.2 19:43:45 10° SSW 19:49:25 75° ESE 19:55:08 10° NNE
USA 238 DEB 4.2 19:43:13 10° SW 19:50:14 67° NW 19:57:17 10° NE
USA 238 4.2 19:43:18 10° SW 19:50:20 68° NW 19:57:23 10° NE
CZ-4B DEB 3.9 19:50:45 11° SE 19:53:25 26° ENE 19:56:12 10° N
ATLAS CENTAUR R/B 3.8 19:52:00 10° WNW 19:55:24 24° WSW 19:58:34 10° SSW
Cosmos 1408 Rocket 3.4 19:55:01 10° N 19:59:24 77° E 20:03:43 10° SSE
USA 186 3.6 20:00:33 10° NE 20:00:33 10° NE 20:00:36 10° NE
FREGAT/IRIS 3.0 19:56:41 10° S 19:59:45 70° WSW 20:02:51 10° NNW
CZ-2D R/B 4.1 19:58:29 12° SE 20:01:36 31° ENE 20:05:04 10° N
METEOR-M 4.1 19:57:04 10° SSE 20:02:26 87° ENE 20:07:49 10° NNW
Cosmos 1420 Rocket 4.2 20:01:27 10° NNW 20:06:39 53° ENE 20:11:41 11° SE
Cosmos 2219 Rocket 4.2 20:02:25 10° WSW 20:07:16 29° NW 20:12:10 10° N
Cosmos 1544 3.6 20:05:17 10° SSE 20:08:44 37° E 20:12:13 10° NNE
Cosmos 1378 4.3 20:05:38 10° NNW 20:09:13 45° W 20:12:47 10° SSW
Cosmos 1953 2.2 20:08:37 10° S 20:12:33 64° E 20:16:31 10° NNE
FENGYUN 3A 3.7 20:08:18 10° SSE 20:13:32 58° ENE 20:18:50 10° N
Meteor 1-28 Rocket 3.8 20:11:49 10° N 20:15:30 58° WNW 20:19:09 10° SSW
ASTEX 1 3.7 20:12:42 10° NNE 20:17:24 43° E 20:22:02 10° SSE
H-2A R/B 3.1 20:14:54 17° SE 20:17:40 45° ENE 20:21:24 10° N
Cosmos 1805 3.1 20:13:49 10° S 20:17:44 73° E 20:21:41 10° NNE
CENTAUR R/B 3.4 20:14:01 10° SSE 20:18:48 24° ESE 20:24:00 10° ENE
Resurs 1-3 3.6 20:14:42 10° SSE 20:19:06 89° ENE 20:23:31 10° NNW
Resurs 01 Rocket 1.9 20:15:24 10° S 20:19:50 71° WSW 20:24:18 10° NNW
NOSS 3-2 (C) 3.5 20:15:56 10° SSW 20:22:03 83° SE 20:28:49 10° NE
Spot 2 Rocket 3.9 20:20:57 10° S 20:25:57 64° WSW 20:30:59 10° NNW
Cosmos 1269 Rocket 4.2 20:21:24 10° S 20:26:26 48° ESE 20:31:30 10° NNE
Cosmos 1346 2.9 20:24:40 10° N 20:27:40 87° E 20:29:18 24° SSE
Cosmos 1743 Rocket 3.5 20:23:16 10° N 20:27:44 74° E 20:32:09 10° SSE
Cosmos 1048 Rocket 4.3 20:23:33 10° S 20:28:31 43° ESE 20:33:28 10° NE
Cosmos 2369 Rocket 2.5 20:24:16 10° NNW 20:29:44 46° ENE 20:32:28 27° ESE
Helios 1A 3.6 20:27:26 10° S 20:31:34 58° WSW 20:35:46 10° NNW
Cosmos 1943 3.9 20:28:08 10° SSE 20:32:55 29° ESE 20:37:43 10° NE
ERBS 4.2 20:30:19 10° NNW 20:33:02 20° NNE 20:33:53 19° NE
Cosmos 1943 Rocket 3.3 20:28:56 10° N 20:33:37 26° NE 20:35:07 23° ENE
Nadezhda 4 Rocket 3.9 20:28:31 10° N 20:34:52 85° E 20:41:05 10° S
Cosmos 724 4.2 20:29:31 10° SSW 20:35:24 70° ESE 20:41:30 10° NE
ATLAS CENTAUR R/B 4.0 20:29:36 10° SW 20:35:26 87° SE 20:55:31 10° NE
Cosmos 1603 3.6 20:31:04 10° SSW 20:36:46 70° ESE 20:42:30 10° NNE
Envisat 3.9 20:36:06 28° E 20:36:55 29° ENE 20:41:16 10° N
Cosmos 1470 2.8 20:38:37 31° SSE 20:40:09 51° E 20:43:56 10° NNE
Cosmos 1092 Rocket 3.9 20:35:34 10° N 20:41:48 72° E 20:47:44 11° SSE
GP-B 3.3 20:40:47 10° NNE 20:45:07 49° E 20:46:04 41° SE
CZ-4B DEB 4.4 20:47:09 45° SSE 20:48:11 86° E 20:51:50 10° NNW
Cosmos 1733 3.5 20:49:30 48° ENE 20:49:30 48° ENE 20:52:46 10° NNE
USA 215 3.2 20:46:32 10° NE 20:53:07 85° SE 20:59:40 10° SW
Cosmos 2026 Rocket 4.0 20:50:20 10° N 20:56:18 53° ENE 20:58:22 37° SE
Cosmos 1634 Rocket 3.9 20:53:22 10° S 20:59:30 64° E 21:05:39 10° NNE
Cosmos 1674 3.1 20:56:07 10° NNW 20:59:59 64° W 21:01:38 31° SSW
Meteor 1-11 4.3 20:58:19 10° N 21:04:03 57° ENE 21:05:20 47° ESE
Meteor 1-16 Rocket 4.2 21:08:34 50° E 21:08:34 50° E 21:13:20 10° NNE
ALOS 3.4 21:04:53 10° S 21:09:18 42° W 21:13:46 10° NNW
Helios 1B rocket 4.4 21:06:18 10° N 21:09:54 30° WNW 21:13:31 10° SW
H-2A R/B 3.6 21:11:46 25° NNE 21:11:46 25° NNE 21:14:16 10° N
CZ-4C R/B 4.3 21:07:34 10° W 21:12:17 25° NNW 21:17:32 10° NNE
SeaSat 1 2.3 21:09:50 10° NNE 21:14:48 69° ESE 21:19:42 10° SSW
ERS-1 Rocket 2.8 21:15:07 66° ESE 21:15:31 69° ENE 21:20:33 10° N
ATLAS 5 CENTAUR R/B 2.8 21:13:01 10° WSW 21:17:45 48° NW 21:22:55 10° NNE
Cosmos 1110 Rocket 3.9 21:12:40 10° NNW 21:17:58 68° ENE 21:18:20 66° E
Cosmos 2195 Rocket 4.4 21:11:44 10° N 21:18:05 86° E 21:20:55 36° S
YAOGAN 11 4.2 21:19:33 64° NNE 21:19:33 64° NNE 21:23:18 10° N
Cosmos 1939 Rocket 3.8 21:22:53 41° N 21:22:53 41° N 21:25:35 10° N
Cosmos 1328 4.2 21:19:29 10° NNW 21:22:54 61° NW 21:22:54 61° NW
Cosmos 839 Rocket 4.3 21:18:01 10° NW 21:25:55 79° WSW 21:28:08 46° SSE
Cosmos 2151 3.5 21:29:27 10° NNW 21:33:20 56° WNW 21:33:20 56° WNW
Meteor 2-20 4.3 21:31:17 10° N 21:37:26 69° ENE 21:37:26 69° ENE
ARGOS 4.3 21:42:56 31° NNE 21:42:56 31° NNE 21:46:20 10° N
Cosmos 2058 4.1 21:37:32 10° NNW 21:40:13 39° NNW 21:40:13 39° NNW
SL-24 R/B - RUBIN 2 4.3 21:40:58 10° NW 21:47:44 88° SW 21:48:05 81° SSE
Terra 4.3 21:52:32 12° NNE 21:52:32 12° NNE 21:53:03 10° NNE
Cosmos 1331 Rocket 4.2 21:46:50 10° NNW 21:51:40 67° WNW 21:51:40 67° WNW
CENTAUR R/B 2.7 22:02:31 10° SW 22:08:41 72° NW 22:15:45 10° NE
Cosmos 2369 Rocket 3.6 22:08:41 10° NW 22:13:33 30° WSW 22:14:17 29° WSW
BREEZE-M DEB (TANK) 4.3 22:07:58 10° W 22:14:54 54° NW 22:14:54 54° NW
Envisat 4.2 22:16:18 39° W 22:16:18 39° W 22:20:35 10° NNW
Cosmos 1943 4.0 22:11:19 10° SW 22:16:44 47° WNW 22:22:11 10° NNE
Cosmos 1943 Rocket 2.9 22:12:15 10° NNW 22:16:39 50° WNW 22:16:39 50° WNW
H-2A R/B 4.0 22:22:24 21° N 22:22:24 21° N 22:24:11 10° N
USA 215 4.1 22:33:35 34° NNE 22:35:50 45° NNW 22:41:57 10° W
